Time,TemperatureF,DewpointF,PressureIn,WindDirection,WindDirectionDegrees,WindSpeedMPH,WindSpeedGustMPH,Humidity,HourlyPrecipIn,Conditions,Clouds,dailyrainin,SolarRadiationWatts/m^2,SoftwareType,DateUTC
2013-03-31 00:02:00,32.0,32.0,-100.00,ENE,63,4.0,6.0,100,0.00,,,0.24,0.800000,,2013-03-31 08:02:00,
2013-03-31 00:12:00,32.0,32.0,-100.00,ENE,63,4.0,6.0,100,0.00,,,0.24,0.800000,,2013-03-31 08:12:00,
2013-03-31 00:21:00,32.0,32.0,-100.00,ENE,63,4.0,6.0,100,0.00,,,0.24,0.800000,,2013-03-31 08:21:00,
2013-03-31 00:52:00,33.0,33.0,-100.00,NNE,20,3.0,5.0,100,0.00,,,0.24,0.800000,,2013-03-31 08:52:00,
2013-03-31 01:01:00,33.0,33.0,-100.00,NNE,20,3.0,5.0,100,0.00,,,0.24,0.800000,,2013-03-31 09:01:00,
2013-03-31 01:12:00,33.0,33.0,-100.00,NNE,20,3.0,5.0,100,0.00,,,0.24,0.800000,,2013-03-31 09:12:00,
2013-03-31 01:21:00,33.0,33.0,-100.00,NNE,20,3.0,5.0,100,0.00,,,0.24,0.800000,,2013-03-31 09:21:00,
2013-03-31 01:53:00,32.0,32.0,-100.00,NNW,328,0.0,4.0,100,0.00,,,0.24,0.800000,,2013-03-31 09:53:00,
2013-03-31 02:03:00,32.0,32.0,-100.00,NNW,328,0.0,4.0,100,0.00,,,0.24,0.800000,,2013-03-31 10:03:00,
2013-03-31 02:12:00,32.0,32.0,-100.00,NNW,328,0.0,4.0,100,0.00,,,0.24,0.800000,,2013-03-31 10:12:00,
2013-03-31 02:23:00,32.0,32.0,-100.00,NNW,328,0.0,4.0,100,0.00,,,0.24,0.800000,,2013-03-31 10:23:00,
2013-03-31 02:53:00,32.0,32.0,-100.00,NW,313,1.0,2.0,100,0.00,,,0.24,0.800000,,2013-03-31 10:53:00,
2013-03-31 03:02:00,32.0,32.0,-100.00,NW,313,1.0,2.0,100,0.00,,,0.24,0.800000,,2013-03-31 11:02:00,
2013-03-31 03:12:00,32.0,32.0,-100.00,NW,313,1.0,2.0,100,0.00,,,0.24,0.800000,,2013-03-31 11:12:00,
2013-03-31 03:22:00,32.0,32.0,-100.00,NW,313,1.0,2.0,100,0.00,,,0.24,0.800000,,2013-03-31 11:22:00,
2013-03-31 03:52:00,33.0,33.0,-100.00,WNW,291,0.0,3.0,100,0.00,,,0.24,0.800000,,2013-03-31 11:52:00,
2013-03-31 04:02:00,33.0,33.0,-100.00,WNW,291,0.0,3.0,100,0.00,,,0.24,0.800000,,2013-03-31 12:02:00,
2013-03-31 04:12:00,33.0,33.0,-100.00,WNW,291,0.0,3.0,100,0.00,,,0.24,0.800000,,2013-03-31 12:12:00,
2013-03-31 04:21:00,33.0,33.0,-100.00,WNW,291,0.0,3.0,100,0.00,,,0.24,0.800000,,2013-03-31 12:21:00,
2013-03-31 04:53:00,33.0,33.0,-100.00,NW,316,0.0,0.0,100,0.00,,,0.24,0.800000,,2013-03-31 12:53:00,
2013-03-31 05:02:00,33.0,33.0,-100.00,NW,316,0.0,0.0,100,0.00,,,0.24,0.800000,,2013-03-31 13:02:00,
2013-03-31 05:12:00,33.0,33.0,-100.00,NW,316,0.0,0.0,100,0.00,,,0.24,0.800000,,2013-03-31 13:12:00,
2013-03-31 05:22:00,33.0,33.0,-100.00,NW,316,0.0,0.0,100,0.00,,,0.24,0.800000,,2013-03-31 13:22:00,
2013-03-31 05:53:00,32.0,32.0,-100.00,ESE,120,1.0,3.0,100,0.00,,,-99.99,0.800000,,2013-03-31 13:53:00,
2013-03-31 06:02:00,32.0,32.0,-100.00,ESE,120,1.0,3.0,100,0.00,,,-99.99,0.800000,,2013-03-31 14:02:00,
2013-03-31 06:11:00,32.0,32.0,-100.00,ESE,120,1.0,3.0,100,0.00,,,-99.99,0.800000,,2013-03-31 14:11:00,
2013-03-31 06:22:00,32.0,32.0,-100.00,ESE,120,1.0,3.0,100,0.00,,,-99.99,0.800000,,2013-03-31 14:22:00,
2013-03-31 06:52:00,32.0,32.0,-100.00,WSW,258,1.0,4.0,100,0.00,,,0.24,0.800000,,2013-03-31 14:52:00,
2013-03-31 07:02:00,32.0,32.0,-100.00,WSW,258,1.0,4.0,100,0.00,,,0.24,0.800000,,2013-03-31 15:02:00,
2013-03-31 07:12:00,32.0,32.0,-100.00,WSW,258,1.0,4.0,100,0.00,,,0.24,0.800000,,2013-03-31 15:12:00,
2013-03-31 07:21:00,32.0,32.0,-100.00,WSW,258,1.0,4.0,100,0.00,,,0.24,0.800000,,2013-03-31 15:21:00,
2013-03-31 07:54:00,32.0,32.0,-100.00,NNW,338,0.0,3.0,100,0.00,,,0.24,1.000000,,2013-03-31 15:54:00,
2013-03-31 08:03:00,32.0,32.0,-100.00,NNW,338,0.0,3.0,100,0.00,,,0.24,1.000000,,2013-03-31 16:03:00,
2013-03-31 08:13:00,32.0,32.0,-100.00,NNW,338,0.0,3.0,100,0.00,,,0.24,1.000000,,2013-03-31 16:13:00,
2013-03-31 08:22:00,32.0,32.0,-100.00,NNW,338,0.0,3.0,100,0.00,,,0.24,1.000000,,2013-03-31 16:22:00,
2013-03-31 08:53:00,32.0,32.0,-100.00,NW,311,0.0,1.0,100,0.00,,,0.24,6.900000,,2013-03-31 16:53:00,
2013-03-31 09:02:00,32.0,32.0,-100.00,NW,311,0.0,1.0,100,0.00,,,0.24,6.900000,,2013-03-31 17:02:00,
2013-03-31 09:12:00,32.0,32.0,-100.00,NW,311,0.0,1.0,100,0.00,,,0.24,6.900000,,2013-03-31 17:12:00,
2013-03-31 09:22:00,32.0,32.0,-100.00,NW,311,0.0,1.0,100,0.00,,,0.24,6.900000,,2013-03-31 17:22:00,
2013-03-31 09:52:00,33.0,33.0,-100.00,NNE,15,3.0,0.0,99,0.01,,,0.25,21.200001,,2013-03-31 17:52:00,
2013-03-31 10:02:00,33.0,33.0,-100.00,NNE,15,3.0,0.0,99,0.01,,,0.25,21.200001,,2013-03-31 18:02:00,
2013-03-31 10:12:00,33.0,33.0,-100.00,NNE,15,3.0,0.0,99,0.01,,,0.25,21.200001,,2013-03-31 18:12:00,
2013-03-31 10:22:00,33.0,33.0,-100.00,NNE,15,3.0,0.0,99,0.01,,,0.25,21.200001,,2013-03-31 18:22:00,
2013-03-31 10:53:00,34.0,33.0,-100.00,WSW,252,4.0,4.0,96,0.01,,,0.24,36.599998,,2013-03-31 18:53:00,
2013-03-31 11:02:00,34.0,33.0,-100.00,WSW,252,4.0,4.0,96,0.01,,,0.24,36.599998,,2013-03-31 19:02:00,
2013-03-31 11:12:00,34.0,33.0,-100.00,WSW,252,4.0,4.0,96,0.01,,,0.24,36.599998,,2013-03-31 19:12:00,
2013-03-31 11:22:00,34.0,33.0,-100.00,WSW,252,4.0,4.0,96,0.01,,,0.24,36.599998,,2013-03-31 19:22:00,
2013-03-31 11:54:00,34.0,33.0,-100.00,SSE,148,3.0,6.0,96,0.05,,,0.22,85.500000,,2013-03-31 19:54:00,
2013-03-31 12:02:00,34.0,33.0,-100.00,SSE,148,3.0,6.0,96,0.05,,,0.22,85.500000,,2013-03-31 20:02:00,
2013-03-31 12:12:00,34.0,33.0,-100.00,SSE,148,3.0,6.0,96,0.05,,,0.22,85.500000,,2013-03-31 20:12:00,
2013-03-31 12:22:00,34.0,33.0,-100.00,SSE,148,3.0,6.0,96,0.05,,,0.22,85.500000,,2013-03-31 20:22:00,
2013-03-31 12:53:00,40.0,35.0,-100.00,NE,54,1.0,5.0,83,0.05,,,0.19,290.799988,,2013-03-31 20:53:00,
2013-03-31 13:02:00,40.0,35.0,-100.00,NE,54,1.0,5.0,83,0.05,,,0.19,290.799988,,2013-03-31 21:02:00,
2013-03-31 13:12:00,40.0,35.0,-100.00,NE,54,1.0,5.0,83,0.05,,,0.19,290.799988,,2013-03-31 21:12:00,
2013-03-31 13:21:00,40.0,35.0,-100.00,NE,54,1.0,5.0,83,0.05,,,0.19,290.799988,,2013-03-31 21:21:00,
2013-03-31 13:53:00,37.0,33.0,-100.00,ENE,71,4.0,5.0,86,0.09,,,0.28,543.700012,,2013-03-31 21:53:00,
2013-03-31 14:03:00,37.0,33.0,-100.00,ENE,71,4.0,5.0,86,0.09,,,0.28,543.700012,,2013-03-31 22:03:00,
2013-03-31 14:13:00,37.0,33.0,-100.00,ENE,71,4.0,5.0,86,0.09,,,0.28,543.700012,,2013-03-31 22:13:00,
2013-03-31 14:23:00,37.0,33.0,-100.00,ENE,71,4.0,5.0,86,0.09,,,0.28,543.700012,,2013-03-31 22:23:00,
2013-03-31 14:53:00,45.0,35.0,-100.00,WNW,302,2.0,6.0,69,0.00,,,0.28,537.900024,,2013-03-31 22:53:00,
2013-03-31 15:53:00,41.0,34.0,-100.00,North,1,0.0,4.0,76,-99.99,,,0.28,509.200012,,2013-03-31 23:53:00,
2013-03-31 16:02:00,41.0,34.0,-100.00,North,1,0.0,4.0,76,-99.99,,,0.28,509.200012,,2013-04-01 00:02:00,
2013-03-31 16:12:00,41.0,34.0,-100.00,North,1,0.0,4.0,76,-99.99,,,0.28,509.200012,,2013-04-01 00:12:00,
2013-03-31 16:21:00,41.0,34.0,-100.00,North,1,0.0,4.0,76,-99.99,,,0.28,509.200012,,2013-04-01 00:21:00,
2013-03-31 16:53:00,44.0,35.0,-100.00,ENE,78,2.0,4.0,70,0.00,,,0.28,514.900024,,2013-04-01 00:53:00,
2013-03-31 17:53:00,42.0,34.0,-100.00,WSW,249,3.0,3.0,74,-99.99,,,0.28,432.600006,,2013-04-01 01:53:00,
2013-03-31 18:02:00,42.0,34.0,-100.00,WSW,249,3.0,3.0,74,-99.99,,,0.28,432.600006,,2013-04-01 02:02:00,
2013-03-31 18:12:00,42.0,34.0,-100.00,WSW,249,3.0,3.0,74,-99.99,,,0.28,432.600006,,2013-04-01 02:12:00,
2013-03-31 18:22:00,42.0,34.0,-100.00,WSW,249,3.0,3.0,74,-99.99,,,0.28,432.600006,,2013-04-01 02:22:00,
2013-03-31 18:53:00,40.0,34.0,-100.00,SW,227,3.0,5.0,79,0.00,,,0.25,316.700012,,2013-04-01 02:53:00,
2013-03-31 19:02:00,40.0,34.0,-100.00,SW,227,3.0,5.0,79,0.00,,,0.25,316.700012,,2013-04-01 03:02:00,
2013-03-31 19:12:00,40.0,34.0,-100.00,SW,227,3.0,5.0,79,0.00,,,0.25,316.700012,,2013-04-01 03:12:00,
2013-03-31 19:22:00,40.0,34.0,-100.00,SW,227,3.0,5.0,79,0.00,,,0.25,316.700012,,2013-04-01 03:22:00,
2013-03-31 19:53:00,38.0,32.0,-100.00,WNW,298,2.0,4.0,80,0.00,,,0.23,175.000000,,2013-04-01 03:53:00,
2013-03-31 20:02:00,38.0,32.0,-100.00,WNW,298,2.0,4.0,80,0.00,,,0.23,175.000000,,2013-04-01 04:02:00,
2013-03-31 20:13:00,38.0,32.0,-100.00,WNW,298,2.0,4.0,80,0.00,,,0.23,175.000000,,2013-04-01 04:13:00,
2013-03-31 20:23:00,38.0,32.0,-100.00,WNW,298,2.0,4.0,80,0.00,,,0.23,175.000000,,2013-04-01 04:23:00,
2013-03-31 20:53:00,33.0,31.0,-100.00,ENE,58,1.0,4.0,92,0.00,,,0.22,40.700001,,2013-04-01 04:53:00,
2013-03-31 21:02:00,33.0,31.0,-100.00,ENE,58,1.0,4.0,92,0.00,,,0.22,40.700001,,2013-04-01 05:02:00,
2013-03-31 21:12:00,33.0,31.0,-100.00,ENE,58,1.0,4.0,92,0.00,,,0.22,40.700001,,2013-04-01 05:12:00,
2013-03-31 21:22:00,33.0,31.0,-100.00,ENE,58,1.0,4.0,92,0.00,,,0.22,40.700001,,2013-04-01 05:22:00,
2013-03-31 21:53:00,32.0,31.0,-100.00,NW,322,0.0,3.0,94,0.00,,,0.22,3.200000,,2013-04-01 05:53:00,
2013-03-31 22:02:00,32.0,31.0,-100.00,NW,322,0.0,3.0,94,0.00,,,0.22,3.200000,,2013-04-01 06:02:00,
2013-03-31 22:12:00,32.0,31.0,-100.00,NW,322,0.0,3.0,94,0.00,,,0.22,3.200000,,2013-04-01 06:12:00,
2013-03-31 22:52:00,33.0,30.0,-100.00,SE,126,0.0,3.0,90,0.00,,,0.21,0.800000,,2013-04-01 06:52:00,
2013-03-31 23:02:00,33.0,30.0,-100.00,SE,126,0.0,3.0,90,0.00,,,0.21,0.800000,,2013-04-01 07:02:00,
2013-03-31 23:12:00,33.0,30.0,-100.00,SE,126,0.0,3.0,90,0.00,,,0.21,0.800000,,2013-04-01 07:12:00,
2013-03-31 23:22:00,33.0,30.0,-100.00,SE,126,0.0,3.0,90,0.00,,,0.21,0.800000,,2013-04-01 07:22:00,
2013-03-31 23:53:00,32.0,30.0,-100.00,West,259,2.0,5.0,94,0.00,,,0.21,0.800000,,2013-04-01 07:53:00,